1st Responders/1st Detectors/Storm Spotters Weather Summary for Lewis County, KY

Forecast Maps


Reg. NEXRAD Animation


National Fire Danger: Day 1 & 2 Map

Current NWS Watch/Warnings

SPC Convective Day 1 Outlook


Day 2 Outlook

(Click images to enlarge|Page will refresh every 5 minutes)
UK Ag. Weather Center Desktop Severe Weather Service[HERE]
Lewis County, KY Hazardous Weather Outlook Webcast
(9 AM to 9 PM Mon-Fri)
[Fast]
[Dial-up]


UKAWC 1st Detectors/1st Responders Precision Weather Forecast For LEWIS County, Kentucky
(based on the NWS County Digital Forecast)

ISSUED AT 09:00 UTC ON SATURDAY SEP 23 2017
DAY SATURDAY
EDT 3HR 6A 7A 8A 9A 10A 11A NOON 1P 2P 3P 4P 5P 6P 7P
MAX/MIN -- -- 63° -- -- -- -- -- -- -- -- -- -- 86°
TEMP 63° 63° 63° 67° 72° 76° 81° 83° 85° 86° 86° 86° 85° 83°
SKY COVER 7% 10% 14% 17% 13% 8% 9% 11% 11% 11% 9% 8% 7% 6%
Clouds
DEW PT 61° 61° 61° 61° 63° 65° 63° 63° 63° 61° 61° 61° 61° 61°
RH 93% 93% 89% 81% 75% 66% 56% 52% 47% 43% 42% 41% 43% 48%
POP 12HR -- -- 3% -- -- -- -- -- -- -- -- -- -- --
RAIN/SNOW (liq.equ) -- -- 0.00in -- -- -- -- -- 0.00in -- -- -- -- --
SNOWFALL -- -- 0in -- -- -- -- -- 0in -- -- -- -- --
WIND SPEED(MPH) 1 1 1 1 2 2 5 5 6 6 6 6 5 5
WIND Gust(MPH) 1 1 1 1 2 2 5 5 6 6 6 6 5 5
WIND DIR NE NE N NE NE NE NE NE NE NE NE NE NE NE
DEW Mod Dew Mod Dew Mod Dew Lgt Dew Lgt Dew -- -- -- -- -- -- -- -- --
HeatIndex 63 63 63 67 72 76 82 84 85 87 87 87 86 83
WIND CHILL -- -- -- -- -- -- -- -- -- -- -- -- -- --
SPRAY COND
DRY COND
LIVESTOCK HEATSTRESS 62.84 62.84 62.75 66.14 70.19 72.78 75.63 76.61 77.36 77.47 77.32 77.17 76.79 76.08



DAY SUNDAY MONDAY TUESDAY WEDNESDAY THURSDAY FRIDAY
EDT 6HR 8P 9P 10P 11P MIDN 1A 2A 3A 4A 5A 6A 7A 8A 9A 10A 11A NOON 1P 2P 3P 4P 5P 8P 11P 2A 5A 8A 11A 2P 5P 8P 2A 8A 2P 8P 2A 8A 2P 8P 2A 8A 2P 8P 2A 8A 2P 8P
MAX/MIN -- -- -- -- -- -- -- -- -- -- -- -- 61° -- -- -- -- -- -- -- -- 85° -- -- -- -- 61° -- -- 86° -- -- 61° 85° -- -- 61° 81° -- -- 58° 74° -- -- 54° 70° --
TEMP 79° 74° 72° 70° 68° 67° 67° 65° 63° 63° 63° 61° 63° 67° 70° 76° 79° 81° 83° 85° 85° 85° 77° 70° 67° 63° 63° 76° 85° 86° 79° 65° 61° 83° 77° 67° 63° 79° 74° 63° 58° 72° 67° 58° 54° 70° 63°
SKY COVER 5% 5% 5% 6% 5% 2% 1% 2% 3% 4% 4% 5% 6% 6% 6% 7% 7% 7% 8% 8% 7% 7% 7% 11% 15% 15% 16% 16% 17% 16% 14% 20% 17% 15% 17% 17% 17% 44% 61% 40% 46% 44% 54% 39% 49% 58% 50%
Clouds
DEW PT 61° 61° 61° 59° 59° 58° 58° 58° 58° 58° 58° 58° 58° 58° 59° 61° 59° 58° 58° 58° 58° 58° 59° 58° 58° 58° 58° 63° 61° 63° 63° 63° 61° 63° 63° 63° 61° 61° 63° 59° 56° 56° 54° 54° 52° 52° 50°
RH 53% 62% 66% 67% 73% 73% 76% 77% 81% 83% 84% 86% 84% 75% 68% 59% 52% 46% 41% 40% 40% 40% 54% 65% 75% 84% 83% 64% 46% 44% 58% 90% 99% 51% 61% 86% 93% 54% 65% 86% 90% 54% 63% 86% 89% 52% 62%
POP 12HR 0% -- -- -- -- -- -- -- -- -- -- -- 0% -- -- -- -- -- -- -- -- -- 0% -- -- -- 1% -- -- -- 2% -- 0% -- 0% -- 3% -- 23% -- 8% -- 9% -- 9% -- 10%
RAIN/SNOW (liq.equ) 0.00in -- -- -- -- -- 0.00in -- -- -- -- -- 0.00in -- -- -- -- -- 0.00in -- -- -- 0.00in -- 0.00in -- 0.00in -- 0.00in -- 0.00in -- -- -- -- -- -- -- -- -- -- -- -- -- -- -- --
SNOWFALL 0in -- -- -- -- -- 0in -- -- -- -- -- 0in -- -- -- -- -- 0in -- -- -- 0in -- 0in -- 0in -- 0in -- 0in -- -- -- -- -- -- -- -- -- -- -- -- -- -- -- --
WIND SPEED(MPH) 2 2 2 2 2 2 2 2 1 1 1 1 1 1 2 2 2 5 5 5 5 5 2 1 1 0 0 1 0 2 1 0 0 1 1 1 1 5 2 2 2 5 6 5 5 6 2
WIND DIR NE NE NE NE E E E E E E E E E E E E E E E E E E E E E NE E E E NE NE NE NE N N NW NW W NW NW NW NW N N N N N
HeatIndex 79 74 72 70 68 67 67 65 63 63 63 61 63 67 70 76 79 82 83 84 85 85 77 70 67 63 63 76 85 87 79 65 61 84 77 67 63 81 74 63 58 72 67 58 54 70 63
WIND CHILL -- -- -- -- -- -- -- -- -- -- -- -- -- -- -- -- -- -- -- -- -- -- -- -- -- -- -- -- -- -- -- -- -- -- -- -- -- -- -- -- -- -- -- -- -- -- --
SPRAY COND
DRY COND
LIVESTOCK HEATSTRESS 73.78 70.82 69.53 67.97 66.63 65.78 65.92 64.22 62.56 62.61 62.63 60.83 62.63 65.87 68.03 72.12 73.67 74.41 75.15 76.35 76.35 76.35 72.40 67.84 65.87 62.63 62.61 72.59 77.22 77.62 74.33 64.66 60.99 76.48 73.10 66.37 62.84 73.89 71.07 62.68 58.04 68.66 65.33 58.06 54.29 67.04 62.12

Click on individual weather variable above in left-hand column (ie., TEMP, RH, QPF 12HR) to view state forecast maps






NWS 48 Hr. Forecast Maps,

Regional Hourly Observations For LEWIS County, Kentucky
Issued at 500 AM EDT SAT SEP 23 2017
NORTHEAST KENTUCKY
  
CITY           SKY/WX    TMP DP  RH WIND       PRES   REMARKS
LEXINGTON      CLEAR     65  61  87 CALM      30.07R                  
COVINGTON      CLEAR     66  66 100 CALM      30.07S                  
FRANKFORT      CLEAR     63  60  90 CALM      30.05S                  


Current NOWCAST not available:
Nowcasts are not issued routinely during fair weather. Only when
precipitation or other significant weather is occuring in this county will these
forecasts be issued. Currently, there is no short term forecast in effect.


Fire Weather Forecast For LEWIS County, KY
Provided by the National Weather Service:

Issued at: Sat Sep 23 05:05:01 EDT 2017

CLOUD COVER                    MClear        Clear        Clear
PRECIP TYPE                      None         None         None
CHANCE PRECIP (%)                   0            0            0
TEMP (24H TREND)              88 (+3)      61 (-2)           87
RH % (24H TREND)              40 (-4)      87 (-9)           38
20FTWND-AM(MPH)               Lgt/Var                   Lgt/Var
20FTWND-PM(MPH)               Lgt/Var      Lgt/Var      Lgt/Var
PRECIP AMOUNT                    0.00         0.00         0.00
PRECIP DURATION                                                
MIXING HGT(FT-AGL)               6680                      6300
TRANSPORT WND (MPH)             NE  9                      E  8
LAL                                 1            1            1
HAINES INDEX                        5            5            5

REMARKS...None.

.FORECAST FOR DAYS 3 THROUGH 7...
.SUNDAY NIGHT...Mostly clear. Lows in the lower 60s. Light winds. 
.MONDAY...Sunny. Highs in the upper 80s. Light and variable wind. 
.TUESDAY...Mostly clear. Lows in the lower 60s. Highs in the mid 80s.
North winds around 5 mph. 
.WEDNESDAY...Partly cloudy. Lows in the lower 60s. Highs in the lower 80s.
Northwest winds around 5 mph. 
.THURSDAY...Partly cloudy. Lows in the upper 50s. Highs in the mid 70s.
Northwest winds around 5 mph. 
.FRIDAY...Partly cloudy. Lows in the mid 50s. Highs in the lower 70s.
North winds around 5 mph. 

SPC's Fire Weather Web Tool (Excellent!), SPC's Fire Weather Outlooks, NWS Fire Weather WEB, Fire Danger Class Map,
Keetch-Byram Drought Index, ROMAN Web, Haines Index ,
WFAS's 10-hr Dead Fuel Moist., WFAS's 100-hr Dead Fuel Moist., Probablity of Ignition, Visual blackness Map, Palmer Drought Index, HPC's Rainfall Forecast Maps


Hazardous Weather Outlook For LEWIS County, Kentucky
304 AM EDT Sat Sep 23 2017

 DAY ONE  Today and Tonight.

No hazardous weather is expected at this time.

 DAYS TWO THROUGH SEVEN  Sunday through Friday.

No hazardous weather is expected at this time.

 SPOTTER INFORMATION STATEMENT  

Spotter activation is not expected at this time.

Latest LEWIS County, Kentucky Watches, Warnings and Advisories.
Additional Drought Info.: UKAWC Drought Page, Kentucky Drought Watch


7-Day Forecast For LEWIS County, KY

TODAY
Mostly sunny. Highs in the upper 80s. Light and variable winds, becoming northeast around 5 mph this late morning and afternoon.

TONIGHT
Clear. Lows in the lower 60s. Northeast winds around 5 mph.

SUNDAY
Sunny. Highs in the upper 80s. East winds around 5 mph.

SUNDAY NIGHT
Mostly clear. Lows in the lower 60s. East winds around 5 mph.

MONDAY
Mostly sunny. Highs in the upper 80s. Light and variable winds, becoming northeast around 5 mph in the afternoon.

MONDAY NIGHT
Mostly clear. Lows in the mid 60s.

TUESDAY
Mostly sunny. Highs in the upper 80s.

TUESDAY NIGHT
Mostly clear. Lows in the mid 60s.

WEDNESDAY
Mostly sunny in the morning, then becoming partly cloudy. Highs in the mid 80s.

WEDNESDAY NIGHT
Partly cloudy. Lows in the lower 60s.

THURSDAY
Partly cloudy. Highs in the mid 70s.

THURSDAY NIGHT
Partly cloudy. Lows in the mid 50s.

FRIDAY
Partly cloudy. Highs in the lower 70s.

Ag Weather Center, Department of Biosystems & Agricultural Engineering, University of Kentucky